This demonstration page uses our WeatherBlox Daily Observations layout. Learn more.

Left ArrowRight Arrow

39.08367, -84.50855

Hourly Observations for April 17, 2015

Temp ( °F °C ) Dew Point ( °F °C ) Humidity (%) Winds ( mph kmh ) Pressure ( in mb ) Visibility ( mi km ) Precip ( " mm )
12:09 am 00:09 Partly Cloudy with Mist and Fog 60 15.6 60 15.6 100 100 N N/A 30.06 1018 1 1 N/A
12:23 am 00:23 Mostly Cloudy with Fog 60 15.6 60 15.6 100 100 N N/A 30.06 1018 1 1 N/A
12:35 am 00:35 Mostly Cloudy with Mist and Fog 60 15.6 60 15.6 100 100 N N/A 30.06 1018 1 2 N/A
12:42 am 00:42 Cloudy with Fog 60 15.6 60 15.6 100 100 SSE 3 6 30.06 1018 1 1 N/A
12:51 am 00:51 Cloudy with Mist and Fog 61 16 61 16 100 100 N N/A 30.06 1018 1 2 N/A
12:53 am 00:53 Mostly Cloudy with Mist and Fog 60 15.6 60 15.6 100 100 N N/A 30.09 1019 1 2 N/A
1:07 am 01:07 Cloudy with Mist and Fog 60 15.6 60 15.6 100 100 N N/A 30.06 1018 2 3 N/A
1:15 am 01:15 Cloudy with Light Rain 60 15.6 60 15.6 100 100 N N/A 30.06 1018 5 8 N/A
1:53 am 01:53 Cloudy 60 15.6 60 15.6 100 100 N N/A 30.08 1019 7 11 N/A
2:12 am 02:12 Cloudy with Heavy Rain 61 16 61 16 100 100 N N/A 30.06 1018 2 3 N/A
2:25 am 02:25 Cloudy with Light Rain 60 15.6 60 15.6 100 100 N N/A 30.06 1018 3 5 0.07 1.78
2:35 am 02:35 Cloudy with Light Rain 60 15.6 60 15.6 100 100 N N/A 30.06 1018 2 2 0.08 2.03
2:53 am 02:53 Cloudy with Light Rain 60 15.6 60 15.6 100 100 N N/A 30.07 1018 1 2 0.08 2.03
3:04 am 03:04 Cloudy with Mist and Fog 61 16 61 16 100 100 S 3 6 30.06 1018 3 5 N/A
3:53 am 03:53 Cloudy with Light Rain 60 15.6 60 15.6 100 100 N N/A 30.07 1018 7 11 0.01 0.25
4:42 am 04:42 Cloudy 61 16.1 61 16.1 100 100 N N/A 30.06 1018 10 16 N/A
4:53 am 04:53 Mostly Cloudy 62 16.7 61 16.1 96 96 WNW 3 6 30.08 1019 10 16 N/A
5:12 am 05:12 Mostly Cloudy 63 17 61 16 94 94 SSW 3 6 30.06 1018 10 16 N/A
5:26 am 05:26 Cloudy 61 16 61 16 100 100 N N/A 30.06 1018 9 14 N/A
5:53 am 05:53 Cloudy 60 15.6 60 15.6 100 100 N N/A 30.08 1019 7 11 N/A
6:01 am 06:01 Mostly Cloudy with Mist and Fog 60 15.6 60 15.6 100 100 SSE 3 6 30.06 1018 3 4 N/A
6:05 am 06:05 Partly Cloudy with Mist and Fog 59 15 59 15 100 100 N N/A 30.09 1019 2 3 N/A
6:12 am 06:12 Mostly Cloudy with Fog 57 14 57 14 100 100 N N/A 30.09 1019 0 0 N/A
6:25 am 06:25 Mostly Cloudy with Mist and Fog 59 15 59 15 100 100 N N/A 30.09 1019 1 2 N/A
6:40 am 06:40 Cloudy with Mist and Fog 58 14.4 58 14.4 100 100 N N/A 30.09 1019 3 5 N/A
6:53 am 06:53 Mostly Cloudy with Mist and Fog 59 15 59 15 100 100 NW 3 6 30.09 1019 6 10 N/A
7:28 am 07:28 Partly Cloudy with Mist and Fog 59 15 57 14 94 94 N N/A 30.12 1020 5 8 N/A
7:53 am 07:53 Sunny with Mist and Fog 59 15 58 14.4 96 96 W 3 6 30.11 1020 5 8 N/A
8:53 am 08:53 Sunny 62 16.7 59 15 90 90 N N/A 30.11 1020 7 11 N/A
9:53 am 09:53 Sunny 65 18.3 54 12.2 68 68 VRB 5 7 30.12 1020 8 13 N/A
10:53 am 10:53 Sunny 66 18.9 54 12.2 65 65 VRB 6 9 30.13 1020 10 16 N/A
11:53 am 11:53 Sunny 67 19.4 52 11.1 59 59 NE 5 7 30.13 1020 10 16 N/A
12:53 pm 12:53 Sunny 68 20 53 11.7 59 59 VRB 6 9 30.11 1020 10 16 N/A
1:53 pm 13:53 Sunny 70 21.1 52 11.1 53 53 S 3 6 30.08 1019 10 16 N/A
2:53 pm 14:53 Sunny 72 22.2 50 10 46 46 VRB 3 6 30.06 1018 10 16 N/A
3:53 pm 15:53 Sunny 73 22.8 48 8.9 41 41 N N/A 30.03 1017 10 16 N/A
4:53 pm 16:53 Sunny 74 23.3 48 8.9 40 40 N N/A 30.02 1017 10 16 N/A
5:53 pm 17:53 Sunny 74 23.3 48 8.9 40 40 E 5 7 30.01 1016 10 16 N/A
6:53 pm 18:53 Sunny 74 23.3 47 8.3 38 38 N N/A 30.00 1016 9 14 N/A
7:53 pm 19:53 Sunny 70 21.1 46 7.8 42 42 NNE 3 6 30.00 1016 10 16 N/A
8:53 pm 20:53 Clear 63 17.2 53 11.7 70 70 N N/A 30.01 1016 10 16 N/A
9:53 pm 21:53 Clear 59 15 51 10.6 75 75 N N/A 30.04 1017 10 16 N/A
10:53 pm 22:53 Clear 57 13.9 48 8.9 72 72 N N/A 30.04 1017 10 16 N/A
11:53 pm 23:53 Clear 53 11.7 51 10.6 93 93 N N/A 30.04 1017 10 16 N/A

Powered by AerisWeather